Погода в Новой Наумовке

Россия / Белгородская область     50°22′49″N   36°16′41″E
темп.,
°C
ветер,
м/с
пор.,
м/с
влажн.,
%
обл.,
%
осадки,
мм/ч
давл.,
гПа
погр.,
м
13 апреля, вт
вт1300:00+11юв367860 0.0 1022107
03:00+10юв3588100 0.0 102277
06:00+9вюв338995 0.0 102235
09:00+14вюв467198 0.0 1022383
12:00+14вюв5960100 0.0 1021473
15:00+14ю496596 0.0 1020468
18:00+15юв61066100 0.0 1019810
21:00+12ююз3684100 0.1 1021353
14 апреля, ср
ср1400:00+9ю359042 0.0 1021119
03:00+8юв338790 0.0 102058
06:00+9юв2283100 0.0 101947
09:00+11вюв227189 0.0 1019404
12:00+11юв2381100 0.3 1018252
15:00+14ю4565100 0.6 1017942
18:00+13ююв5867100 0.3 1016824
21:00+10вюв2277100 0.3 101632
15 апреля, чт
чт1500:00+9юв227899 0.0 101538
03:00+9юв228483 0.2 101534
06:00+7ююв22875 0.0 101518
09:00+12ю336795 0.0 1014451
12:00+15ю555386 0.0 10141543
15:00+15ю5751100 0.0 10131575
18:00+13ю5766100 0.3 1013760
21:00+10юв2687100 1.3 1014353
16 апреля, пт
пт1600:00+10вюв4789100 0.3 1013305
03:00+8ю3691100 0.6 1013161
06:00+7ю379110 0.0 1014203
09:00+9ю577028 0.0 1015771
12:00+12ююв685063 0.0 10151730
15:00+11ю6751100 0.0 10161710
18:00+10ю565890 0.0 10161144
21:00+7ююв33725 0.0 101758
17 апреля, сб
сб1700:00+6ю22758 0.0 101730
03:00+5в2278100 0.0 101827
06:00+5юв118093 0.0 101911
09:00+10зюз336497 0.0 1018462
12:00+13з3346100 0.0 10181637
15:00+14зюз3340100 0.0 10182016
18:00+13зюз334699 0.0 10191254
21:00+8зсз227050 0.0 102142